Location: Unspecified
(30.5960°N, 0.0000°E)
Time: 10:44:38
(UTC+00:00)

Vanguard 2 Rocket - Visible Passes

Search period start: 04 April 2026 00:00
Search period end: 14 April 2026 00:00
Orbit: 554 x 3286 km, 32.9° (Epoch: 29 March)

Date Brightness Start Highest point End Pass type
(mag) Time Alt. Az. Time Alt. Az. Time Alt. Az.
4 Apr 9.1 02:26:01 16° E 02:26:01 16° E 02:27:20 10° E visible
4 Apr 7.2 04:31:22 25° W 04:34:25 54° SSW 04:42:49 10° SE visible
5 Apr 6.8 03:30:16 61° SE 03:30:16 61° SE 03:36:18 10° ESE visible
5 Apr 8.9 19:43:22 10° S 19:46:42 13° SSE 19:46:42 13° SSE visible
6 Apr 9.1 02:29:14 14° E 02:29:14 14° E 02:30:07 10° E visible
6 Apr 7.6 04:34:35 23° WSW 04:37:18 37° SSW 04:44:38 10° SE visible
6 Apr 8.9 20:48:52 10° SW 20:51:22 18° SSW 20:51:22 18° SSW visible
7 Apr 7.3 03:33:36 42° SSE 03:33:36 42° SSE 03:38:38 10° SE visible
7 Apr 8.3 19:43:20 10° SSW 19:49:53 23° SSE 19:50:38 22° SSE visible
8 Apr 9.2 02:32:39 11° ESE 02:32:39 11° ESE 02:32:48 10° ESE visible
8 Apr 7.9 04:38:02 19° SW 04:40:14 24° SSW 04:46:01 10° SSE visible
8 Apr 8.9 18:38:10 10° S 18:44:19 17° SSE 18:48:54 10° ESE visible
8 Apr 8.3 20:50:37 10° SW 20:55:16 31° SSW 20:55:16 31° SSW visible
9 Apr 7.9 03:37:07 26° SSE 03:37:07 26° SSE 03:40:39 10° SE visible
9 Apr 7.8 19:44:22 10° SW 19:52:48 35° SSE 19:54:30 31° SE visible
9 Apr 9.5 21:59:17 10° WSW 21:59:53 12° WSW 21:59:53 12° WSW visible
10 Apr 8.4 04:41:39 13° SW 04:43:10 14° SSW 04:46:29 10° S visible
10 Apr 8.8 18:38:13 10° SSW 18:47:15 27° SSE 18:53:10 10° E visible
10 Apr 7.6 20:52:42 10° WSW 20:59:05 47° SW 20:59:05 47° SW visible
11 Apr 8.6 03:40:49 14° SSE 03:40:49 14° SSE 03:42:12 10° SSE visible
11 Apr 7.6 19:45:54 10° SW 19:55:39 50° SSE 19:58:15 34° ESE visible
11 Apr 9.2 22:01:54 10° W 22:03:37 17° W 22:03:37 17° W visible
12 Apr 8.5 18:39:04 10° SW 18:50:06 39° SSE 18:56:43 10° E visible
12 Apr 7.2 20:55:01 10° WSW 21:02:44 67° WSW 21:02:44 67° WSW visible
13 Apr 7.5 19:47:46 10° WSW 19:58:27 67° SSE 20:01:48 31° E visible
13 Apr 9.0 22:04:35 10° W 22:07:10 21° W 22:07:10 21° W visible
